N299EZ CYKF-CYXU

Flight info

Callsign N299EZ
Flight time N/A
Altitude 3000
Route CYKF/14 VFR SOUTH
Aircraft BA62

Departure

Time N/A
Airport Region of Waterloo International Airport (CYKF)

Arrival

Time 2026-04-28 03:09
Airport London International Airport (CYXU)
Time Latitude Longitude Altitude Speed Heading
2026-04-28 03:04 43.15533 -81.03382 6627 ft 207 kts 240°
2026-04-28 03:04 43.14797 -81.05088 6209 ft 208 kts 240°
2026-04-28 03:04 43.14069 -81.06786 5796 ft 206 kts 240°
2026-04-28 03:05 43.13353 -81.08466 5385 ft 202 kts 240°
2026-04-28 03:05 43.12656 -81.10110 4973 ft 195 kts 240°
2026-04-28 03:05 43.11965 -81.11678 4525 ft 190 kts 236°
2026-04-28 03:05 43.11167 -81.13087 3891 ft 182 kts 232°
2026-04-28 03:06 43.10250 -81.14242 3075 ft 178 kts 218°
2026-04-28 03:06 43.09442 -81.15411 2492 ft 163 kts 237°
2026-04-28 03:06 43.08942 -81.16494 2234 ft 110 kts 238°
2026-04-28 03:06 43.08494 -81.17446 2035 ft 129 kts 238°
2026-04-28 03:07 43.07934 -81.18486 1882 ft 138 kts 223°
2026-04-28 03:07 43.07088 -81.19118 1786 ft 141 kts 197°
2026-04-28 03:07 43.06275 -81.18673 1711 ft 135 kts 133°
2026-04-28 03:07 43.05714 -81.17832 1539 ft 110 kts 134°
2026-04-28 03:08 43.05183 -81.17139 1331 ft 102 kts 139°
2026-04-28 03:08 43.04680 -81.16524 1211 ft 95 kts 140°
2026-04-28 03:08 43.04168 -81.15918 1087 ft 104 kts 140°
2026-04-28 03:08 43.03672 -81.15345 902 ft 79 kts 137°
2026-04-28 03:09 43.03398 -81.15008 904 ft 42 kts 139°
2026-04-28 03:09 43.03204 -81.14776 900 ft 33 kts 139°
2026-04-28 03:09 43.03051 -81.14592 898 ft 26 kts 139°
2026-04-28 03:09 43.02939 -81.14532 898 ft 12 kts 260°
2026-04-28 03:10 43.02908 -81.14629 897 ft 11 kts 231°
2026-04-28 03:10 43.02885 -81.14687 897 ft 5 kts 270°
2026-04-28 03:10 43.02882 -81.14723 897 ft 3 kts 265°
2026-04-28 03:10 43.02875 -81.14751 898 ft 3 kts 250°
2026-04-28 03:11 43.02869 -81.14763 898 ft 2 kts 234°
2026-04-28 03:11 43.02867 -81.14775 898 ft 0 kts 270°